Location: Unspecified
(0.0000°N, 0.0000°E)
Time: 17:46:47
(UTC+00:00)

OTV 5 (USA 277) - Pass Details

Date: 21 August 2019
Orbit: 310 x 324 km, 54.5° (Epoch: 17 October)

Event Time Altitude Azimuth Distance (km) Brightness Sun altitude
Rises 18:33:34 0° 209° (SSW) 2,054 ? -7.4°
Reaches altitude 10° 18:35:32 10° 206° (SSW) 1,219 ? -7.9°
Maximum altitude 18:38:13 68° 123° (ESE) 342 ? -8.6°
Drops below altitude 10° 18:40:53 10° 39° (NE) 1,205 ? -9.2°
Sets 18:42:50 0° 36° (NE) 2,027 ? -9.7°
